SCP
-0 0 0 0 0 0 0 0 0 0 0 0 0 0 0 0 0 0 0 0 0 0 0 0 1 1 1 1 1 1 1 1 1 1 1 0 0 0 0 0 0 0 0 0
0 0 0 0 0 0 0 0 0 0 0 0 0 0 0 0 0 0 0 0 0 0 0 0 1 1 1 1 1 1 1 1 1 1 1 1 0 0 0 0 0 0 0 0
0 0 0 0 0 0 0 0 0 0 0 0 0 0 0 0 0 0 0 0 0 0 0 0 1 1 1 1 1 1 1 1 1 1 1 0 0 0 0 0 0 0 0 0
0 0 0 0 0 0 0 0 0 0 0 0 0 0 0 0 0 0 0 0 0 0 0 0 1 1 1 1 1 1 1 1 1 1 1 1 1 0 0 1 1 0 0 0
0 0 0 0 0 0 0 0 0 0 0 0 0 0 0 0 0 0 0 0 0 0 0 0 0 0 0 0 1 1 1 1 1 1 1 1 1 1 1 1 1 1 0 0
0 0 0 0 0 0 0 0 0 0 0 0 0 0 0 0 0 0 0 0 0 0 0 0 1 1 1 1 1 1 1 1 1 1 1 1 1 1 1 1 1 1 1 1
0 0 0 0 0 0 0 0 0 0 0 0 0 0 0 0 0 0 0 0 0 0 0 1 1 1 1 1 1 1 1 1 1 1 1 1 1 1 1 1 1 1 1 1
0 0 0 0 0 0 0 0 0 0 0 0 0 0 0 0 0 0 0 0 0 0 0 1 1 1 1 1 1 1 1 1 1 1 1 1 1 1 1 1 1 1 1 1
0 0 0 0 0 0 0 0 0 0 0 0 0 0 0 0 0 0 0 0 0 0 1 1 1 1 1 1 1 1 1 1 1 1 1 1 1 1 1 1 1 1 1 1
0 0 0 0 0 0 0 0 0 0 0 0 0 0 0 0 0 0 0 0 0 0 1 1 1 1 1 1 1 1 1 1 1 1 1 1 1 1 1 1 1 1 1 1
0 0 0 0 0 0 0 0 0 0 0 0 0 0 0 0 0 0 0 0 0 0 1 1 1 1 1 1 1 1 1 1 1 1 1 1 1 1 1 1 1 1 0 0
0 0 0 0 0 0 0 0 0 0 0 0 0 0 0 0 0 0 0 0 0 0 0 1 1 1 1 1 1 1 1 1 1 1 1 1 1 1 1 1 1 1 0 0
0 0 0 0 0 0 0 0 0 0 0 0 0 0 0 0 0 0 0 0 0 0 0 0 0 1 1 1 1 1 1 1 1 1 1 1 1 1 1 1 1 1 1 0
0 0 0 0 0 0 0 0 0 0 0 0 0 0 0 0 0 0 0 0 0 0 0 0 0 1 1 1 1 0 0 0 0 0 1 1 1 1 1 1 1 1 1 0
0 0 0 0 0 0 0 0 0 0 0 0 0 0 0 0 0 0 0 0 0 0 0 0 0 0 1 0 0 0 0 0 0 0 0 0 1 1 1 1 1 1 1 1
0 0 0 0 0 0 0 0 0 0 0 0 0 0 0 0 0 0 0 0 0 0 0 0 0 0 0 0 0 0 0 0 0 0 0 0 0 0 0 1 0 0 1 1
0 0 0 0 0 0 0 0 0 0 0 0 0 0 0 0 0 0 0 0 0 0 0 0 0 0 0 0 0 0 0 0 0 0 0 0 1 0 0 0 0 0 0 1
0 0 0 0 0 0 0 0 0 0 0 0 0 0 0 0 0 0 0 0 0 0 0 0 0 0 0 0 0 0 0 0 0 0 0 0 0 0 0 0 0 0 0 0
0 0 0 0 0 0 0 0 0 0 0 0 0 0 0 0 0 0 0 0 0 0 0 0 0 0 0 0 0 0 0 0 0 0 0 0 0 0 0 0 0 0 0 0
0 0 0 0 0 0 0 0 0 0 0 0 0 0 0 0 0 0 0 0 0 0 0 0 0 0 0 0 0 0 0 0 0 0 0 0 0 0 0 0 0 0 0 0
0 0 0 0 0 0 0 0 0 0 0 0 0 0 0 0 0 0 0 0 0 0 0 0 0 0 0 0 0 0 0 0 0 0 0 0 0 0 0 0 0 0 0 0
0 0 0 0 0 0 0 0 0 0 0 0 0 0 0 0 0 0 0 0 0 0 0 0 0 0 0 0 0 0 0 0 0 0 0 0 0 0 0 0 0 0 0 0
0 0 0 0 0 0 0 0 0 0 0 0 0 0 0 0 0 0 0 0 0 0 0 0 0 0 0 0 0 0 0 0 0 0 0 0 0 0 0 0 0 0 0 0
0 0 0 0 0 0 0 0 0 0 0 0 0 0 0 0 0 0 0 0 0 0 0 0 0 0 0 0 0 0 0 0 0 0 0 0 0 0 0 0 0 0 0 0
0 0 0 0 0 0 0 0 0 0 0 0 0 0 0 0 0 0 0 0 0 0 0 0 0 0 0 0 0 0 0 0 0 0 0 0 0 0 0 0 0 0 0 0
0 0 0 0 0 0 0 0 0 0 0 0 0 0 0 0 0 0 0 0 0 0 0 0 0 0 0 0 0 0 0 0 0 0 0 0 0 0 0 0 0 0 0 0
Wind_Speed
9 11 11 9 10 9 8 10 10 7 3 6 7 7 5 4 5 5 5 4 5 5 5 5 6 7 7 7 8 8 7 7 6 5 5 4 4 3 3 3 3 3 3 3
10 13 9 7 8 9 11 12 10 5 3 6 7 8 6 6 6 6 6 6 6 5 5 6 6 7 7 7 7 7 7 7 6 4 4 3 3 3 2 2 2 3 3 4
13 4 5 9 10 11 12 12 9 6 5 7 8 10 8 7 6 6 6 6 6 6 6 7 7 8 8 7 7 6 7 7 6 6 4 4 4 3 3 3 3 3 3 3
11 6 8 11 11 11 11 8 8 8 9 7 7 8 5 6 6 6 7 7 6 6 6 7 8 8 8 8 8 7 7 7 6 6 5 5 4 4 3 2 2 3 3 3
8 8 10 11 10 10 8 5 8 10 10 10 9 9 5 5 6 6 6 6 6 6 6 7 7 7 8 8 8 8 8 7 7 6 6 5 4 3 3 3 3 3 3 3
8 6 8 8 7 7 6 6 8 10 10 12 9 10 6 4 5 5 5 5 5 5 5 6 7 7 7 6 7 8 8 7 7 7 6 5 4 4 3 3 3 3 3 3
10 10 8 8 9 9 9 9 7 9 9 8 4 8 4 1 2 3 4 3 4 5 5 6 7 7 7 7 7 7 8 7 7 7 6 5 5 5 4 4 3 3 2 2
10 10 10 8 10 8 10 11 8 7 7 5 5 7 2 1 0 1 2 2 2 4 5 5 5 6 6 6 6 6 7 7 7 7 6 5 5 4 3 3 3 3 2 2
7 6 7 7 8 9 11 11 9 10 10 9 6 4 5 2 2 1 1 1 2 3 4 4 5 5 5 5 6 6 6 7 7 6 6 5 5 4 3 3 4 2 2 2
6 7 6 7 9 9 9 8 7 10 9 10 8 7 4 3 3 1 1 0 1 2 3 3 4 4 4 5 5 5 5 6 6 6 6 5 5 4 4 3 3 3 3 2
7 7 7 9 10 10 9 10 9 9 9 9 8 3 2 1 1 2 1 1 0 2 2 3 3 4 4 4 4 4 5 5 5 5 5 5 4 4 4 3 3 3 3 3
5 7 7 8 6 7 9 9 10 10 9 9 9 2 4 2 2 2 2 1 1 1 1 2 3 3 3 4 4 4 5 5 5 4 4 4 4 4 4 4 3 3 3 4
4 6 8 8 10 9 9 9 10 10 8 9 10 3 4 2 2 3 2 2 1 1 1 2 3 3 3 3 4 4 4 4 4 4 4 4 4 4 4 4 3 3 3 3
6 8 10 9 4 5 9 9 9 11 10 10 10 6 1 1 2 3 3 2 1 0 1 0 2 3 2 3 3 3 4 4 3 4 4 4 3 3 3 3 3 3 3 4
5 9 9 8 6 6 8 9 10 11 11 11 9 7 4 3 3 3 2 2 1 1 1 0 1 2 2 3 3 3 3 4 3 3 3 3 3 3 3 3 3 3 3 3
4 6 7 9 8 7 8 10 11 11 11 11 9 6 2 2 2 2 2 2 1 1 1 1 1 1 2 2 3 3 3 3 4 4 3 3 3 3 3 3 3 3 2 3
4 5 8 9 7 8 9 7 8 8 7 8 7 3 1 1 1 2 3 2 2 2 2 2 2 1 1 2 2 3 3 4 4 4 3 3 3 3 2 2 2 2 2 2
5 6 6 7 7 10 1 3 2 2 2 3 3 2 2 1 1 2 3 3 3 3 2 2 1 1 1 2 2 3 3 4 4 4 3 3 3 2 2 2 2 2 2 2
5 6 6 6 8 5 3 0 2 4 3 2 2 1 1 0 1 1 3 4 2 2 2 1 1 0 2 2 3 3 3 3 4 4 3 2 2 2 2 3 3 2 2 2
5 6 6 7 8 6 1 2 3 5 4 1 1 1 1 2 3 2 4 4 4 2 2 1 1 1 1 2 3 4 4 3 3 3 2 2 2 2 3 3 3 2 2 2
5 6 8 8 7 2 3 2 3 5 1 3 2 2 1 1 3 4 3 3 4 3 2 2 2 1 1 1 2 2 2 2 1 1 1 1 2 2 3 2 3 3 2 2
4 4 5 6 6 2 3 0 1 3 4 3 3 2 2 3 3 4 4 4 4 4 3 3 2 2 1 1 1 1 1 0 0 1 1 1 1 1 1 2 2 2 2 3
3 3 2 2 1 4 2 2 3 2 1 2 2 2 3 3 4 4 4 4 4 4 3 3 3 3 2 2 2 1 2 1 1 1 1 1 1 0 1 2 2 2 2 2
1 2 3 2 1 1 1 2 2 2 1 2 2 2 3 3 3 3 3 3 3 3 2 2 2 2 3 3 2 2 2 1 1 1 1 1 1 1 0 1 1 1 1 1
2 3 3 3 1 0 1 2 2 2 2 2 3 2 2 1 1 2 1 1 1 2 2 2 2 2 3 2 2 2 2 0 1 1 0 0 0 1 1 0 1 1 1 1
3 4 5 3 2 2 1 1 2 2 2 1 1 2 2 1 1 1 1 1 1 1 1 1 1 1 2 2 2 2 2 1 0 1 1 0 0 0 1 1 1 2 1 2
Wind_Direction
196 221 225 225 234 259 262 253 250 247 222 243 243 246 239 225 227 225 222 214 204 197 191 176 170 169 171 166 165 167 169 168 177 179 185 179 183 193 191 187 184 193 199 194
205 227 232 233 231 240 244 246 246 237 220 255 250 250 245 227 233 234 230 226 223 208 186 174 168 167 168 168 170 169 171 169 178 176 184 181 186 191 180 176 169 194 199 206
226 224 211 219 221 230 238 247 250 250 231 233 254 247 231 224 227 232 236 236 227 218 200 185 179 176 172 170 173 172 170 168 174 173 174 170 178 190 181 181 175 190 204 205
232 212 212 223 227 232 236 236 249 244 244 240 236 265 226 216 221 228 232 233 229 221 205 189 184 182 179 174 170 170 168 169 170 177 179 180 187 190 187 196 176 185 195 202
217 210 218 227 227 228 245 237 237 241 248 260 240 258 248 206 232 237 235 233 224 215 203 190 187 185 182 174 169 166 166 168 172 176 179 189 191 190 188 190 178 197 184 197
235 216 229 237 233 226 226 222 226 235 241 247 245 253 262 229 250 251 234 225 214 210 197 189 181 179 176 174 171 166 166 169 173 176 184 191 191 195 193 193 188 200 185 190
215 209 210 224 220 203 216 227 228 225 226 242 221 245 252 282 286 269 256 227 203 200 189 181 178 175 174 174 174 172 172 173 176 179 185 189 195 199 200 208 196 212 198 189
218 206 197 207 225 221 217 234 248 259 257 249 210 239 204 116 308 289 275 236 188 192 181 175 176 175 175 174 175 178 178 177 180 182 186 192 201 210 201 207 220 209 216 198
239 217 177 202 223 236 221 231 254 266 266 261 230 215 201 177 215 260 290 242 186 178 171 170 170 175 177 176 176 182 183 180 183 184 185 189 195 212 208 204 221 213 210 199
263 243 201 199 214 222 244 237 234 244 254 256 243 234 225 198 237 252 240 207 172 168 177 170 166 167 175 178 176 180 181 182 184 185 192 184 190 200 204 210 209 221 214 209
253 247 210 205 220 219 212 217 232 245 256 263 263 238 65 339 314 298 298 3 122 178 189 174 164 166 166 161 167 179 181 183 181 185 188 189 191 197 203 206 207 210 214 210
238 258 244 222 217 243 231 233 229 239 242 249 267 244 91 53 19 356 2 30 64 140 168 169 163 159 157 156 166 176 184 186 182 179 182 188 192 195 202 202 202 200 208 216
230 240 238 214 203 207 220 225 235 244 253 251 254 227 113 86 32 18 3 11 49 86 132 171 162 163 169 163 169 172 180 186 184 182 182 183 195 197 204 206 201 203 205 214
245 244 254 263 277 218 222 225 230 239 244 250 254 261 258 328 324 341 343 346 348 75 87 156 169 166 176 178 177 178 173 173 183 190 189 187 197 203 210 206 199 206 209 210
249 245 248 265 278 257 242 239 236 240 253 261 270 275 297 319 313 320 321 324 347 25 35 228 201 183 188 194 194 184 177 172 179 193 199 200 205 208 212 206 203 206 209 206
245 257 246 247 246 248 248 243 239 242 250 259 265 269 336 3 353 333 317 292 288 300 327 327 258 211 205 205 202 188 185 180 183 196 206 205 212 215 214 205 194 190 196 195
230 247 249 243 237 249 242 248 246 239 248 262 265 292 10 359 344 345 331 314 304 295 306 295 278 243 234 221 205 200 193 191 194 201 208 210 212 212 216 211 194 189 190 192
243 250 254 248 232 240 117 56 312 255 264 288 295 312 310 337 356 17 354 339 338 326 306 289 282 249 222 216 204 207 204 198 201 209 213 208 203 203 203 199 197 207 207 200
233 238 253 248 239 233 173 111 287 254 243 315 300 314 347 15 229 111 23 7 354 341 340 330 322 183 183 196 198 199 203 203 207 217 215 206 200 196 199 201 198 203 210 210
197 225 247 244 251 249 81 36 310 254 213 52 355 331 317 267 262 31 23 4 6 22 24 10 34 97 169 191 196 192 195 204 218 223 208 210 209 205 207 202 200 206 215 213
196 212 236 247 249 246 39 6 249 233 47 22 359 360 341 341 354 25 20 18 24 40 58 56 59 67 92 162 178 185 191 204 220 212 191 195 203 208 199 192 194 198 206 203
241 231 226 243 244 226 56 97 304 21 25 25 29 30 25 40 49 46 35 32 34 36 46 60 59 45 52 99 121 118 85 27 117 153 159 162 204 236 182 196 195 197 200 201
255 301 289 286 18 63 66 38 32 25 32 41 45 37 48 57 52 44 39 33 31 32 32 44 52 45 39 52 71 65 53 53 89 106 115 142 153 222 236 219 204 207 213 231
197 291 255 222 147 79 59 52 35 31 53 52 51 51 56 59 53 47 45 35 26 26 22 24 43 44 47 47 53 45 45 73 98 106 135 168 164 187 187 269 255 248 240 245
297 247 238 231 221 177 79 48 34 35 49 47 56 51 51 66 59 51 53 29 10 8 -0 12 35 36 35 43 36 33 32 97 135 141 147 220 189 156 172 196 344 294 339 342
251 253 254 258 239 257 258 1 6 26 29 35 42 26 23 18 6 345 337 324 329 353 2 17 24 25 32 34 32 36 27 20 140 154 178 207 258 119 211 187 129 82 116 108